Location: Izdebno
(52.6670°N, 16.2170°E)
Time: 05:47:45
(UTC+02:00)

Vanguard 2 Rocket - Pass Details

Date: 03 March 2024
Orbit: 555 x 3307 km, 32.9° (Epoch: 24 April)

Event Time Altitude Azimuth Distance (km) Brightness Sun altitude
Rises 14:05:13 0° 233° (SW) 3,812 11.2 25.7°
Reaches altitude 10° 14:08:08 10° 218° (SW) 3,187 11.6 25.5°
Maximum altitude 14:14:15 23° 169° (S) 2,979 10.4 25.0°
Drops below altitude 10° 14:23:09 10° 125° (SE) 4,812 10.6 24.2°
Sets 14:28:57 0° 114° (ESE) 6,327 11.1 23.6°
